User: anonymous   Login
Location: Hamburg
(53.5500°N, 10.0000°E)
Time: 03:28:13
(UTC+02:00)
Language:

Courier 1B - Orbit

View from above orbital plane
View from above orbital plane
View from above satellite
View from above satellite

Ground track
Ground track

The orbit data is extracted from the following two-line orbital elements,

1    58U 60013A   17086.62488527 +.00000096 +00000-0 +20883-4 0  9997
2    58 028.3279 310.0011 0164907 037.9794 323.2255 13.46307377780309
Epoch (UTC): 27 March 2017 14:59:50
Eccentricity: 0.0164907
inclination: 28.3279°
perigee height: 963 km
apogee height: 1209 km
right ascension of ascending node: 310.0011°
argument of perigee: 37.9794°
revolutions per day: 13.46307377
mean anomaly at epoch: 323.2255°
orbit number at epoch: 78030

The dashed part of the orbit path shows where the satellite is in the earth's shadow,  

DLR